Dewpoint
60 61 60 59 60 59 59 59 60 61 60 59 58 58 57 58 58 57 58 57 57 57
62 61 60 60 60 59 59 58 60 60 60 60 58 58 58 58 58 57 57 57 57 57
62 61 61 60 59 58 58 58 58 60 59 59 59 59 58 57 58 58 57 57 57 56
61 60 61 60 59 59 58 57 57 57 59 59 59 59 58 58 57 57 57 57 57 56
60 61 60 59 58 58 57 57 56 57 57 59 59 59 58 57 57 57 56 56 57 57
58 59 59 59 57 57 57 57 57 57 57 58 59 58 58 57 56 56 56 56 56 56
58 59 59 58 57 57 57 57 57 58 57 57 57 57 57 57 57 56 56 56 56 56
47 58 58 58 57 57 57 57 57 57 57 57 57 53 57 56 55 55 55 55 55 55
42 44 53 57 57 56 56 56 56 56 55 46 42 38 40 52 55 55 55 55 55 55
38 40 41 43 50 52 54 53 52 48 44 40 39 37 39 39 55 54 50 49 52 52
37 37 38 38 36 37 39 39 39 38 38 36 35 36 37 41 44 40 38 39 41 42
35 36 37 35 34 35 34 33 33 34 34 34 34 36 38 41 38 34 33 33 34 35
34 34 34 34 34 34 34 32 32 32 32 33 33 35 36 36 34 31 31 31 32 33
32 32 32 34 34 33 33 32 32 30 30 31 32 32 34 34 32 31 30 30 30 31
Lifted_Index
-2 -2 -3 -3 -3 -3 -3 -2 -2 -2 -1 -0 0 1 1 2 2 3 2 2 2 2
-3 -3 -3 -3 -3 -3 -3 -2 -2 -2 -1 -0 0 1 1 2 2 2 2 2 2 2
-3 -3 -3 -3 -3 -3 -3 -3 -2 -2 -1 -1 -0 0 1 1 2 2 2 2 2 2
-3 -3 -3 -3 -3 -3 -3 -3 -2 -1 -1 -1 -0 0 1 1 2 2 2 2 2 2
-3 -3 -3 -3 -3 -3 -3 -2 -2 -1 -1 -0 -0 0 1 1 2 2 2 2 2 2
-2 -2 -3 -3 -3 -3 -2 -2 -1 -1 -0 -0 -0 0 1 1 2 2 2 2 2 3
-2 -2 -2 -3 -3 -3 -2 -1 -1 -0 0 0 0 0 1 1 2 2 2 2 3 3
-1 -2 -2 -3 -3 -2 -1 -1 0 0 0 0 0 1 1 2 2 2 2 2 2 2
-1 -1 -2 -2 -2 -1 -1 0 1 1 1 1 1 1 2 2 2 3 3 2 3 3
-1 -1 -1 -1 -1 -0 0 1 2 2 1 1 2 2 2 3 3 3 3 3 3 3
1 1 0 0 0 0 1 1 2 2 2 2 2 2 2 3 3 3 3 2 2 2
5 4 4 3 3 3 2 2 3 3 3 3 3 2 2 3 3 3 3 2 2 2
8 8 8 8 8 7 7 6 5 5 5 4 4 4 3 3 3 3 3 3 3 2
10 10 11 11 10 10 10 9 8 8 7 6 5 5 4 4 4 4 4 4 3 3